Regional Weather Roundup
Issued by NWS

Home | Current Version | Previous Version | Graphics & Text | Print | Product List | Glossary On
Versions: 1 2 3 4 5 6 7 8 9 10 11 12 13 14 15 16 17 18 19 20 21 22 23 24 25 26 27 28 29 30 31 32 33 34 35 36 37 38 39 40 41 42 43 44 45 46 47 48 49 50
000
ASUS43 KIND 240959
RWRIN

WEATHER ROUNDUP FOR INDIANA
NATIONAL WEATHER SERVICE INDIANAPOLIS IN
600 AM EDT THU JUL 24 2014

NOTE: "FAIR" INDICATES FEW OR NO CLOUDS BELOW 12,000 FEET WITH NO
SIGNIFICANT WEATHER AND/OR OBSTRUCTIONS TO VISIBILITY.

* - STATION DOES NOT REPORT WEATHER SUCH AS PRECIPITATION OR FOG.

+ - STATION NOT QUALITY CONTROLLED BY THE NATIONAL WEATHER SERVICE.
    USE DATA WITH CAUTION...ESPECIALLY DEWPOINT AND RELATIVE
    HUMIDITY OBSERVATIONS.

INZ001>003-010>013-019-020-241100-
NORTHWEST INDIANA

CITY           SKY/WX    TMP DP  RH WIND       PRES   REMARKS
KNOX *+        CLEAR     51  49  93 N6        30.11R
MONTICELLO +   CLEAR     56  55  95 N3        30.08R
RENSSELAER +   CLEAR     55  55 100 N5        30.11R
VALPARAISO     CLEAR     56  52  86 VRB5      30.12R

$$

LMZ046-743>745-241100-
SOUTHERN LAKE MICHIGAN

STATION/POSITION TIME  TEMP WIND        PRES
                       AIR  DIR/SP/G
                 (UTC) (F)  (DEG/KT/KT) (MB)
MICHIGAN CITY    0900   63   30/ 15/ 18   N/A

$$

INZ004-005-014>016-021>024-241100-
NORTH CENTRAL INDIANA

CITY           SKY/WX    TMP DP  RH WIND       PRES   REMARKS
GOSHEN         PTCLDY    58  55  90 N5        30.10R
SOUTH BEND     MOCLDY    56  52  86 NE7       30.12R
WARSAW +       PTCLDY    55  55 100 CALM      30.10R

$$

INZ006>009-017-018-025>027-241100-
NORTHEAST INDIANA

CITY           SKY/WX    TMP DP  RH WIND       PRES   REMARKS
ANGOLA *+      CLOUDY    61  52  72 NE5       30.11R
FORT WAYNE     MOCLDY    62  58  86 NE8       30.10R

$$

INZ028-029-035-036-043>045-051>053-241100-
WEST CENTRAL INDIANA

CITY           SKY/WX    TMP DP  RH WIND       PRES   REMARKS
GREENCASTLE +  PTCLDY    54  52  94 N5        30.07S
LAFAYETTE      CLEAR     55  54  96 CALM      30.09R
TERRE HAUTE    CLEAR     55  52  89 N5        30.06R

$$

INZ030>032-037>040-046>048-054>057-064-065-241100-
CENTRAL INDIANA

CITY           SKY/WX    TMP DP  RH WIND       PRES   REMARKS
INDIANAPOLIS   PTCLDY    59  56  89 NE9       30.05R
-EAGLE CREEK   CLEAR     57  54  89 CALM      30.06R
KOKOMO *+      PTCLDY    55  54  94 E3        30.08S
MT COMFORT *+  CLEAR     57 N/A N/A N6        30.07S
SHELBYVILLE    CLEAR     62  59  90 N7        30.05R
ZIONSVILLE +   CLEAR     55  52  88 N6        30.08S

$$

INZ033-034-041-042-049-050-058-059-241100-
EAST CENTRAL INDIANA

CITY           SKY/WX    TMP DP  RH WIND       PRES   REMARKS
MUNCIE         CLOUDY    60  58  92 NE3       30.07R FOG

$$

INZ060-061-067>069-081>083-085>088-241100-
SOUTHWEST INDIANA

CITY           SKY/WX    TMP DP  RH WIND       PRES   REMARKS
EVANSVILLE     CLOUDY    61  54  77 N8        30.03R
HUNTINGBURG *+ MOCLDY    63  55  77 N9        30.02R

$$

INZ062-063-066-070>080-084-089>092-241100-
SOUTH CENTRAL AND SOUTHEAST INDIANA

CITY           SKY/WX    TMP DP  RH WIND       PRES   REMARKS
BLOOMINGTON    PTCLDY    59  56  89 N7        30.05R

$$



USA.gov is the U.S. government's official web portal to all federal, state and local government web resources and services.